Weather in Nowshahr

Iran     36°38′10″N   51°33′01″E
temp.,
°C
wind,
m/s
gust,
m/s
humid.,
%
clouds,
%
prec.,
mm/h
press.,
hPa
HPBL,
m
17 august, wed
wed1701:30+28sse01860 0.0 100770
04:30+28wnw33873 0.0 1008200
07:30+28wnw55877 0.0 1010352
10:30+28nw54841 0.0 1010256
13:30+28nnw22781 0.0 1010196
16:30+28n11720 0.0 1009150
19:30+28s11700 0.0 100861
22:30+29s11700 0.0 100911
18 august, thu
thu1801:30+29w22630 0.0 100815
04:30+29w33600 0.0 100856
07:30+28w55690 0.0 1009278
10:30+28nw44680 0.0 1009247
13:30+28nw33650 0.0 1008220
16:30+28nw12630 0.0 1007150
19:30+28se11620 0.0 100756
22:30+29s12580 0.0 100717
19 august, fri
fri1901:30+29s11550 0.0 100619
04:30+28wsw22490 0.0 100756
07:30+28w33510 0.0 1007186
10:30+28nw44580 0.0 1007285
13:30+28nw44610 0.0 1007295
16:30+28nw33570 0.0 1007252
19:30+28w22570 0.0 100789
22:30+28wsw22540 0.0 100744
20 august, sat
sat2001:30+28wsw34520 0.0 1008139
04:30+27w56580 0.0 1008369
07:30+27w45510 0.0 1009291
10:30+28wnw56530 0.0 1010344
13:30+28wnw78580 0.0 1009414
16:30+28wnw78670 0.0 1009362
19:30+28wnw67700 0.0 1010336
22:30+28w67670 0.0 1010349
21 august, sun
sun2101:30+27w79674 0.0 1010576
04:30+27w67675 0.0 1011619
07:30+27w34570 0.0 1012395
10:30+27nw45600 0.0 1012440
13:30+27nw55660 0.0 1011571
16:30+27nne32590 0.0 1011481
19:30+27ne11540 0.0 1011239
22:30+27wnw22530 0.0 1011324